Content
SEND FEEDBACK

Daily
Averages
Monthly
Summary
United States of America

POLLOCK, SOUTH DAKOTA


Home > North America > United States > South Dakota
Elevation: 1656 feet     Latitude: 45 54N     Longitude: 100 17W

WEATHER
 
SELECT A DAY
Number of Records: 177,004;   Date Range: 1/2/95 - 7/29/14
 
SHARE

PRINT THIS DATA

[ ← Previous Day ]
WEATHER ALMANAC - JANUARY 3, 2013
[ Next Day → ]
[ °C ]   °F
Weather ElementAverageHighLow
Temperature19.6 °F28 °F (1:52 pm)10.9 °F (11:52 pm)
Dewpoint12.8 °F18 °F (1:52 pm)6.1 °F (8:52 pm)
Humidity75.2 %84 % (5:52 am)66 % (1:52 pm)
Barometer30.24 in30.35 in (3:52 am)30.13 in (10:52 pm)
Wind Speed6.4 mph11.5 mph (11:52 am)
Weather ElementAverage
Visibility10 mi
Wind DirectionSW (227.1 °)

Weather ElementTotal
Precipitation---
Heating Degree Days45.6 (Base 65)
Averaged from 24 records on January 3, 2013
WEATHER CONDITIONS BREAKOUT
WIND DIRECTION BREAKOUT
WEATHER BY HOUR - JANUARY 3, 2013
[ °C ]   °F
Local TimeTemperatureDewpointHumidityBarometerVisibilityWind DirectionWind SpeedGust SpeedPrecipitationEventsConditions
1:27 AM17.6 °F12.2 °F79 %30.26 in10.0 miNNW (330°)5.8 mphOvercast
1:52 AM18.0 °F12.9 °F81 %30.33 in10.0 miNNW (340°)6.9 mphOvercast
2:52 AM18.0 °F12.9 °F81 %30.33 in10.0 miWNW (290°)5.8 mphOvercast
3:52 AM18.0 °F12.9 °F81 %30.35 in10.0 miWest (280°)6.9 mphOvercast
4:52 AM18.0 °F12.9 °F81 %30.35 in10.0 miWest (280°)3.5 mphOvercast
5:52 AM17.1 °F12.9 °F84 %30.34 in10.0 miWest (270°)3.5 mphOvercast
6:52 AM19.9 °F14.0 °F78 %30.30 in10.0 miWest (260°)9.2 mphOvercast
7:52 AM19.9 °F12.9 °F74 %30.30 in10.0 miWNW (290°)10.4 mphOvercast
8:52 AM19.9 °F14.0 °F78 %30.31 in10.0 miWNW (290°)9.2 mphOvercast
9:52 AM21.0 °F15.1 °F78 %30.30 in10.0 miWest (280°)8.1 mphOvercast
10:52 AM23.0 °F16.0 °F74 %30.29 in10.0 miWest (260°)9.2 mphScattered Clouds
11:52 AM25.0 °F16.0 °F69 %30.26 in10.0 miWest (260°)11.5 mphClear
12:52 PM26.1 °F17.1 °F69 %30.22 in10.0 miWSW (250°)8.1 mphClear
1:52 PM28.0 °F18.0 °F66 %30.20 in10.0 miWNW (300°)5.8 mphClear
2:52 PM27.0 °F17.1 °F66 %30.19 in10.0 miSW (220°)8.1 mphClear
3:52 PM25.0 °F17.1 °F72 %30.19 in10.0 miSW (230°)5.8 mphClear
4:52 PM21.9 °F14.0 °F72 %30.19 in10.0 miSSW (210°)6.9 mphClear
5:52 PM19.9 °F12.0 °F71 %30.18 in10.0 miSouth (170°)4.6 mphClear
6:52 PM17.1 °F10.9 °F77 %30.17 in10.0 miSSE (160°)4.6 mphClear
7:52 PM16.0 °F9.0 °F74 %30.15 in10.0 miSouth (170°)9.2 mphClear
8:52 PM12.9 °F6.1 °F74 %30.15 in10.0 miSSE (160°)5.8 mphClear
9:52 PM15.1 °F7.0 °F70 %30.14 in10.0 miSSE (150°)5.8 mphClear
10:52 PM14.0 °F7.0 °F74 %30.13 in10.0 miCalmClear
11:52 PM10.9 °F6.1 °F81 %30.14 in10.0 miCalmClear
Hourly data recorded from KMBG, located miles away from Pollock, South Dakota







STORIES FROM OUR PARTNERS